PDT,Max TemperatureF,Mean TemperatureF,Min TemperatureF,Max Dew PointF,MeanDew PointF,Min DewpointF,Max Humidity, Mean Humidity, Min Humidity, Max Sea Level PressureIn, Mean Sea Level PressureIn, Min Sea Level PressureIn, Max VisibilityMiles, Mean VisibilityMiles, Min VisibilityMiles, Max Wind SpeedMPH, Mean Wind SpeedMPH, Max Gust SpeedMPH,PrecipitationIn, CloudCover, Events, WindDirDegrees
2011-10-1,59,55,51,54,51,46,100,89,67,30.00,29.96,29.92,10,9,4,8,2,,0.10,8,Rain,45
2011-10-2,60,54,48,55,53,48,100,92,77,29.97,29.93,29.86,10,9,2,17,5,25,0.16,7,Rain,138
2011-10-3,59,56,53,54,52,50,94,90,82,29.90,29.87,29.84,10,9,3,16,7,20,0.21,8,Rain,159
2011-10-4,59,54,50,50,48,46,94,86,63,29.85,29.68,29.47,10,9,3,18,8,29,0.61,7,Rain,154
2011-10-5,55,50,46,50,46,45,100,87,72,29.69,29.58,29.48,10,10,7,20,7,28,0.10,7,Rain,172
2011-10-6,60,52,44,54,49,43,100,86,72,30.16,30.00,29.83,10,9,3,10,4,,0.00,6,Rain,200
2011-10-7,57,55,53,55,53,52,100,95,88,30.23,30.20,30.18,10,6,2,15,7,21,0.03,8,Rain,189
2011-10-8,62,56,51,55,52,48,100,89,63,30.24,30.20,30.17,10,9,0,12,2,,0.05,7,Fog-Rain,185
2011-10-9,59,55,51,55,53,50,100,96,82,30.16,30.07,29.96,10,6,2,8,3,,0.07,8,Rain,144
2011-10-10,60,56,53,59,55,52,100,92,77,29.87,29.72,29.62,10,6,1,26,12,33,0.38,8,Rain,185
2011-10-11,60,58,55,55,54,52,94,85,72,30.14,29.95,29.76,7,5,2,24,17,39,0.34,7,Rain,212
2011-10-12,60,53,46,54,51,46,100,89,68,30.28,30.25,30.20,10,7,1,10,4,,0.01,2,,81
2011-10-13,59,54,48,50,47,45,100,80,63,30.22,30.14,30.02,10,10,5,10,5,,0.00,6,Rain,46
2011-10-14,60,53,46,54,49,45,94,85,72,30.00,29.97,29.94,10,10,7,14,6,17,0.01,6,Rain,57
2011-10-15,60,54,48,54,52,48,100,90,72,30.04,30.01,29.98,10,9,2,14,5,,0.00,1,Rain,22
2011-10-16,59,52,46,54,49,45,100,84,67,30.27,30.16,30.01,10,9,3,17,5,22,0.00,0,,357
2011-10-17,68,55,42,52,47,43,100,82,43,30.35,30.30,30.20,10,8,4,14,7,17,0.00,0,,43
2011-10-18,77,64,51,52,44,39,77,50,36,30.16,30.04,29.97,10,10,7,24,11,33,0.00,0,,96
2011-10-19,59,56,53,54,52,50,94,87,72,30.16,30.08,29.98,10,8,3,20,11,28,0.00,7,Rain,225
2011-10-20,59,52,46,52,49,45,100,87,72,30.17,30.12,30.08,10,10,7,9,5,,0.00,4,,46
2011-10-21,60,56,53,55,51,48,100,86,72,30.34,30.27,30.16,10,9,2,23,7,29,0.00,8,,175
2011-10-22,60,56,53,59,55,52,100,92,82,30.36,30.32,30.30,10,8,2,12,5,,0.01,8,Rain,196
2011-10-23,60,56,53,57,54,48,100,91,77,30.27,30.21,30.16,10,8,1,17,3,23,0.00,5,,343
2011-10-24,59,50,41,46,43,39,100,85,55,30.36,30.31,30.24,10,10,7,17,5,22,0.00,2,,49
2011-10-25,55,46,37,45,41,36,100,83,62,30.44,30.40,30.36,10,9,2,15,6,20,0.00,0,,49
2011-10-26,53,47,41,46,40,36,87,74,51,30.36,30.33,30.29,10,10,7,12,7,,0.00,3,,84
2011-10-27,60,52,44,45,43,41,93,75,51,30.32,30.24,30.11,10,10,7,12,5,17,0.00,2,,61
2011-10-28,57,50,44,54,47,37,100,85,66,30.14,30.11,30.07,10,8,2,25,10,37,0.17,4,Rain,170
2011-10-29,60,53,46,55,52,45,100,96,77,30.31,30.26,30.21,10,4,0,8,3,,0.00,5,Fog-Rain,126
2011-10-30,59,56,53,59,56,52,100,98,94,30.24,30.20,30.16,7,3,1,16,8,22,0.52,8,Rain,208
2011-10-31,55,48,42,50,44,39,100,86,67,30.48,30.42,30.33,10,9,7,16,3,21,0.02,3,Rain,20